Find OneWeb SL0083

NORAD ID: 45435 Int'l Des: 2020-020 Owner: ONEWEB Country: UK Constellation: oneweb operational
LEOCIRCULARPOLARONEWEB_TYPE

Live Position

Loading 3D Globe...

About OneWeb SL0083

Description loading...

Upcoming Passes

Passes for default location (London). Set your location on the main map for personalized predictions.

Altitude History

Loading altitude history...

Two-Line Element Set

1 45435U 20020M 26125.25276766 -.00019123 00000-0 -54027-1 0 9999
2 45435 87.8931 29.5948 0002281 67.6733 292.4637 13.11513495297049
Epoch: May 5, 2026 • Age: 5 hours

Current Status

Altitude 1245.9 km
Velocity 7.23 km/s
Sub-Earth Point -74.45°S, 9.05°W
Launch Date Mar 21, 2020
Age 6.1 years
Type internet

Technical Details

Classification Payload
Mass 148.00 kg
Dry Mass 140.00 kg
Total Mass 148.00 kg
Length 1.30 m
Diameter 1.00 m
Span 5.00 m
Shape Trapezoid+2 pan
Manufacturer ONEWUS
Bus Type ARROW
Phase Status In Orbit
Owner/State ONEWEB/UK

Most Searched